Regional Weather Roundup
Issued by NWS

Home | Current Version | Previous Version | Graphics & Text | Print | Product List | Glossary On
Versions: 1 2 3 4 5 6 7 8 9 10 11 12 13 14 15 16 17 18 19 20 21 22 23 24 25 26 27 28 29 30 31 32 33 34 35 36 37 38 39 40 41 42 43 44 45 46 47 48 49 50
000
ASUS43 KLMK 231110
RWRKY
KENTUCKY REGIONAL WEATHER ROUNDUP
NATIONAL WEATHER SERVICE LOUISVILLE KY
700 AM EDT WED APR 23 2014

NOTE "FAIR" INDICATES FEW OR NO CLOUDS BELOW 12,000 FEET
WITH NO SIGNIFICANT WEATHER AND/OR OBSTRUCTIONS TO VISIBILITY.

KYZ001>023-026-027-061>063-070>075-231200-
WESTERN AND SOUTH CENTRAL KENTUCKY

CITY           SKY/WX    TMP DP  RH WIND       PRES   REMARKS
PADUCAH        CLEAR     43  39  86 CALM      30.05R
HENDERSON      CLEAR     46  34  61 NE9       30.08R
OWENSBORO      CLEAR     45  35  67 NE5       30.08R
HOPKINSVILLE   CLEAR     45  39  78 NE7       30.04R
BOWLING GREEN  CLEAR     45  31  58 CALM      30.05R
GLASGOW        CLEAR     44  32  61 CALM      30.04R
$$

KYZ024-025-028>034-038-045-046-053-231200-
NORTH CENTRAL KENTUCKY

CITY           SKY/WX    TMP DP  RH WIND       PRES   REMARKS
LOUISVILLE/SDF PTCLDY    45  32  60 N9        30.06R
LOUISVILLE/LOU CLEAR     45  32  60 N6        30.06R
FORT KNOX      PTCLDY    42  32  68 N6        30.04R
$$

KYZ035>037-039>044-047>052-055>060-089>105-231200-
NORTHEAST KENTUCKY

CITY           SKY/WX    TMP DP  RH WIND       PRES   REMARKS
LEXINGTON      CLEAR     40  31  70 NW3       30.02R
COVINGTON      CLEAR     39  31  72 N12       30.04R WCI  32
FRANKFORT      CLEAR     37  31  78 NW3       30.03R
$$

KYZ054-064>069-076>088-106>120-231200-
SOUTHEAST KENTUCKY

CITY           SKY/WX    TMP DP  RH WIND       PRES   REMARKS
JACKSON        CLEAR     42  26  53 N5        30.00R
LONDON         CLEAR     43  29  57 CALM      30.01R
SOMERSET       CLEAR     43  30  61 CALM      30.04R
MIDDLESBORO    CLEAR     45  31  56 CALM      30.00R
MONTICELLO     SUNNY     40  33  76 CALM      30.05R
$$




USA.gov is the U.S. government's official web portal to all federal, state and local government web resources and services.